Location: Henau
(47.4548°N, 9.1164°E)
Time: 22:09:40
(UTC+00:00)

Cosmos 1354 Rocket - Pass Details

Date: 03 March 2021
Orbit: 765 x 782 km, 74.0° (Epoch: 20 April)

Event Time Altitude Azimuth Distance (km) Brightness Sun altitude
Rises 18:18:46 0° 338° (NNW) 3,251 7.6 -12.1°
Reaches altitude 10° 18:21:10 10° 341° (NNW) 2,319 6.8 -12.5°
Maximum altitude 18:26:26 74° 67° (ENE) 801 3.9 -13.4°
Drops below altitude 10° 18:31:39 10° 152° (SSE) 2,297 6.1 -14.3°
Enters shadow 18:33:33 - 154° (SSE) 3,039 6.8 -14.6°
